This demonstration page uses our WeatherBlox Daily Observations layout. Learn more.

36.17497, -115.13722

Hourly Observations for September 11, 2018

Temp ( °F °C ) Dew Point ( °F °C ) Humidity (%) Winds ( mph kmh ) Pressure ( in mb ) Visibility ( mi km ) Precip ( " mm )
12:53 am 00:53 Clear 79 26.1 24 -4.4 13 13 WNW 3 6 29.71 1006 10 16.09344 0 0
1:53 am 01:53 Clear 78 25.6 26 -3.3 15 15 Calm 29.71 1006 10 16.09344 0 0
2:53 am 02:53 Clear 77 25 26 -3.3 15 15 WNW 5 7 29.71 1006 10 16.09344 0 0
3:53 am 03:53 Clear 74 23.3 27 -2.8 17 17 NNW 6 9 29.74 1007 10 16.09344 0 0
4:53 am 04:53 Clear 72 22.2 26 -3.3 18 18 NW 7 11 29.74 1007 10 16.09344 0 0
5:53 am 05:53 Clear 71 21.7 26 -3.3 19 19 NW 7 11 29.74 1007 10 16.09344 0 0
6:53 am 06:53 Sunny 72 22.2 26 -3.3 18 18 NW 5 7 29.77 1008 10 16.09344 0 0
7:53 am 07:53 Sunny 76 24.4 28 -2.2 17 17 NNW 3 6 29.8 1009 10 16.09344 0 0
8:53 am 08:53 Sunny 81 27.2 27 -2.8 14 14 SE 5 7 29.8 1009 10 16.09344 0 0
9:53 am 09:53 Sunny 87 30.6 24 -4.4 10 10 SE 6 9 29.8 1009 10 16.09344 0 0
10:53 am 10:53 Sunny 90 32.2 27 -2.8 10 10 SE 9 15 29.77 1008 10 16.09344 0 0
11:53 am 11:53 Sunny 93 33.9 27 -2.8 9 9 SE 9 15 29.77 1008 10 16.09344 0 0
12:53 pm 12:53 Sunny 96 35.6 28 -2.2 9 9 SE 13 20 29.74 1007 10 16.09344 0 0
1:53 pm 13:53 Sunny 98 36.7 29 -1.7 9 9 SE 10 17 29.71 1006 10 16.09344 0 0
2:53 pm 14:53 Sunny 100 37.8 26 -3.3 7 7 ESE 16 26 29.68 1005 10 16.09344 0 0
3:53 pm 15:53 Sunny 102 38.9 17 -8.3 5 5 S 14 22 29.65 1004 10 16.09344 0 0
4:53 pm 16:53 Sunny 101 38.3 18 -7.8 5 5 SSW 15 24 29.65 1004 10 16.09344 0 0
5:53 pm 17:53 Sunny 99 37.2 19 -7.2 5 5 SW 17 28 29.62 1003 10 16.09344 0 0
6:53 pm 18:53 Sunny 96 35.6 19 -7.2 6 6 SW 10 17 29.65 1004 10 16.09344 0 0
7:53 pm 19:53 Clear 93 33.9 21 -6.1 7 7 SSW 5 7 29.65 1004 10 16.09344 0 0
8:53 pm 20:53 Clear 91 32.8 21 -6.1 8 8 S 6 9 29.68 1005 10 16.09344 0 0
9:53 pm 21:53 Clear 89 31.7 22 -5.6 8 8 S 7 11 29.65 1004 10 16.09344 0 0
10:53 pm 22:53 Clear 86 30 22 -5.6 9 9 Calm 29.68 1005 10 16.09344 0 0
11:53 pm 23:53 Clear 86 30 21 -6.1 9 9 SSW 13 20 29.65 1004 10 16.09344 0 0

Powered by AerisWeather